weather.gov     
National Weather Service

Terminal Aerodrome Forecast
NWS Homepage
This page is being discontinued on March 12, 2014.
The same data is available at this site. Please update your bookmarks.
Thank you, and we apologize for the inconvenience.
Please send an email to SR-SRH.Webmaster@noaa.gov with any concerns.


Current Version
Previous Version:    01  02  03  04  05  06  07  08  09  10  11  12  13  14  15  16  17  18  19  20  21  22  23  24  25  26  27  28  29  30  
   31  32  33  34  35  36  37  38  39  40  41  42  43  
[Printable]
548
FTUS46 KLOX 020500
TAFSMX
TAF
KSMX 020520Z 0206/0306 VRB03KT P6SM OVC007
     FM020800 VRB03KT 4SM BR OVC004
     FM021200 VRB03KT 1SM BR OVC002
     FM021500 VRB03KT 5SM BR OVC006
     FM021700 VRB03KT P6SM BKN010
     FM021900 30012KT P6SM SKC
     FM030200 30006KT 5SM BR OVC006=


U.S. Dept. of Commerce
NOAA National Weather Service
1325 East West Highway
Silver Spring, MD 20910
E-mail: w-nws.webmaster@noaa.gov
Page last modified: May 16, 2007
NATIONAL WEATHER SERVICE: for Safety, for Work, for Fun - FOR LIFE